Location: Asheville, NC
(35.6000°N, 82.5500°W)
Time: 04:57:54
(UTC-04:00)

XW-2B - Pass Details

Date: 17 February 2018
Orbit: 509 x 531 km, 97.5° (Epoch: 20 May)

Event Time Altitude Azimuth Distance (km) Brightness Sun altitude
Rises 05:47:49 0° 28° (NNE) 2,627 ? -18.3°
Reaches altitude 10° 05:50:19 10° 45° (NE) 1,739 ? -17.8°
Maximum altitude 05:53:11 21° 96° (E) 1,206 ? -17.2°
Drops below altitude 10° 05:56:03 10° 146° (SE) 1,738 ? -16.6°
Sets 05:58:32 0° 162° (SSE) 2,625 ? -16.1°
